Location: Blackie
(50.6050°N, 113.6230°W)
Time: 05:13:53
(UTC+00:00)

Envisat - Visible Passes

Search period start: 27 November 2021 00:00
Search period end: 07 December 2021 00:00
Orbit: 764 x 766 km, 98.2° (Epoch: 26 November)

Date Brightness Start Highest point End Pass type
(mag) Time Alt. Az. Time Alt. Az. Time Alt. Az.
27 Nov 6.0 01:12:34 10° WSW 01:15:26 15° W 01:18:19 10° NW visible
27 Nov 5.3 11:35:12 10° NE 11:39:06 22° E 11:42:57 10° SE visible
27 Nov 2.9 13:13:30 10° N 13:18:32 62° WNW 13:23:31 10° SSW visible
28 Nov 5.2 00:33:44 10° SSW 00:38:09 29° W 00:42:35 10° NNW visible
28 Nov 6.1 11:00:45 10° ENE 11:01:42 10° E 11:02:37 10° E visible
28 Nov 3.3 12:36:35 10° NNE 12:41:41 68° ESE 12:46:44 10° S visible
28 Nov 4.1 14:16:25 10° N 14:20:15 22° WNW 14:24:03 10° WSW visible
29 Nov 4.6 12:00:01 10° NNE 12:04:39 34° E 12:09:15 10° SSE visible
29 Nov 3.4 13:39:00 10° N 13:43:43 39° WNW 13:48:25 10° SW visible
30 Nov 5.9 01:00:14 10° SW 01:03:44 19° W 01:07:15 10° NW visible
30 Nov 5.6 11:24:01 10° NE 11:27:24 18° E 11:30:46 10° SE visible
30 Nov 2.9 13:01:54 10° NNE 13:07:00 76° WNW 13:12:04 10° SSW visible
01 Dec 4.8 00:21:50 10° SSW 00:26:30 36° W 00:31:11 10° NNW visible
01 Dec 3.6 12:25:05 10° NNE 12:30:06 55° E 12:35:05 10° S visible
01 Dec 3.9 14:04:39 10° N 14:08:48 26° WNW 14:12:58 10° WSW visible
02 Dec 6.3 01:27:57 10° W 01:29:25 11° W 01:30:54 10° WNW visible
02 Dec 4.9 11:48:38 10° NE 11:53:00 28° E 11:57:20 10° SSE visible
02 Dec 3.2 13:27:21 10° N 13:32:14 48° WNW 13:37:05 10° SW visible
03 Dec 5.6 00:48:04 10° SW 00:52:02 23° W 00:56:02 10° NW visible
03 Dec 5.8 11:12:59 10° NE 11:15:41 14° E 11:18:22 10° ESE visible
03 Dec 2.9 12:50:20 10° NNE 12:55:27 88° ESE 13:00:33 10° SSW visible
03 Dec 4.4 14:30:32 10° NNW 14:33:49 18° NW 14:37:05 10° W visible
04 Dec 4.4 00:10:02 10° S 00:14:52 44° W 00:19:45 10° NNW visible
04 Dec 4.0 12:13:36 10° NNE 12:18:29 45° E 12:23:20 10° S visible
04 Dec 3.7 13:52:55 10° N 13:57:22 31° WNW 14:01:47 10° WSW visible
05 Dec 6.0 01:15:03 10° WSW 01:17:41 14° W 01:20:20 10° NW visible
05 Dec 5.2 11:37:18 10° NE 11:41:19 23° E 11:45:19 10° SE visible
05 Dec 3.0 13:15:43 10° N 13:20:43 58° WNW 13:25:42 10° SSW visible
06 Dec 5.3 00:36:03 10° SSW 00:40:22 28° W 00:44:43 10° NW visible
06 Dec 6.0 11:02:23 10° ENE 11:03:57 11° E 11:05:31 10° ESE visible
06 Dec 3.2 12:38:47 10° NNE 12:43:53 73° ESE 12:48:57 10° S visible
06 Dec 4.2 14:18:42 10° N 14:22:24 21° WNW 14:26:06 10° WSW visible
